DW5310 Weather Reports


time (UTC)temp
C
wind
direction
speed
KPH
gust
KPH
rain 1hr
cm
rain 24hr
cm
rain mn
cm
humidity
%
barometer
mb
20260903120006 12 160 14.5 22.5 0.00 1.22 0.13 93 1008.5
20260903115506 12 148 12.9 24.1 0.00 1.22 0.13 94 1007.5
20260903115005 12 186 12.9 24.1 0.00 1.22 0.13 94 1007.5
20260903114005 12 147 12.9 24.1 0.00 1.22 0.13 94 1008.5
20260903113505 12 151 14.5 24.1 0.00 1.22 0.13 94 1008.5
20260903112506 12 136 17.7 27.4 0.00 1.22 0.13 95 1008.5
20260903112006 12 134 14.5 27.4 0.00 1.22 0.13 95 1008.5
20260903111505 12 140 14.5 27.4 0.00 1.22 0.13 95 1008.5
20260903111005 12 156 9.7 32.2 0.00 1.22 0.13 95 1008.5
20260903110505 12 153 11.3 32.2 0.00 1.22 0.13 95 1008.5
20260903110005 12 147 14.5 32.2 0.00 1.22 0.13 95 1008.5
20260903105506 12 140 14.5 25.7 0.00 1.22 0.13 95 1008.5
20260903105005 12 129 11.3 25.7 0.00 1.22 0.13 95 1008.5
20260903104506 12 166 9.7 33.8 0.00 1.22 0.13 95 1008.5
20260903104006 12 135 17.7 33.8 0.00 1.22 0.13 95 1008.5
20260903103506 12 146 8.0 29.0 0.00 1.22 0.13 95 1008.5
20260903102506 12 131 16.1 33.8 0.00 1.22 0.13 96 1008.5
20260903101505 12 154 14.5 33.8 0.00 1.22 0.13 96 1008.5
20260903100006 12 122 9.7 24.1 0.00 1.22 0.13 97 1008.5
20260903095006 12 147 12.9 25.7 0.00 1.22 0.13 97 1008.5
20260903094506 12 151 11.3 27.4 0.00 1.22 0.13 97 1008.5
20260903094006 12 135 12.9 27.4 0.00 1.22 0.13 97 1008.5
20260903093006 12 144 11.3 25.7 0.00 1.22 0.13 98 1008.5
20260903092505 12 145 11.3 25.7 0.00 1.22 0.13 98 1008.5
20260903092006 12 145 4.8 20.9 0.00 1.22 0.13 98 1008.5
20260903091505 12 125 9.7 20.9 0.00 1.22 0.13 98 1008.5
20260903091006 12 150 9.7 32.2 0.00 1.22 0.13 98 1008.5
20260903090506 12 161 12.9 32.2 0.00 1.22 0.13 98 1008.5
20260903090005 12 148 6.4 16.1 0.00 1.22 0.13 98 1008.5
20260903085505 12 132 4.8 14.5 0.00 1.22 0.13 98 1008.5
20260903085005 12 145 8.0 16.1 0.00 1.22 0.13 97 1008.5
20260903084506 12 142 4.8 16.1 0.13 1.22 0.13 98 1008.5
20260903084005 12 146 4.8 16.1 0.13 1.22 0.13 98 1008.5
20260903083505 12 149 4.8 35.4 0.13 1.22 0.13 98 1008.5
20260903083005 12 146 11.3 35.4 0.13 1.22 0.13 98 1008.5
20260903082505 12 163 9.7 24.1 0.13 1.22 0.13 98 1008.5
20260903082007 12 146 14.5 24.1 0.13 1.22 0.13 98 1008.5
20260903081005 12 143 8.0 24.1 0.13 1.22 0.13 98 1008.5
20260903080505 12 138 14.5 24.1 0.13 1.22 0.13 98 1008.5
20260903080005 12 154 6.4 20.9 0.13 1.22 0.13 98 1008.5
20260903075505 12 132 9.7 24.1 0.13 1.22 0.13 98 1009.5
20260903075005 12 166 8.0 24.1 0.13 1.22 0.13 98 1009.5
20260903074505 12 145 11.3 24.1 0.00 1.12 0.00 98 1009.5
20260903074006 12 202 11.3 24.1 0.00 1.12 0.00 98 1008.5
20260903073505 12 136 9.7 22.5 0.00 1.12 0.00 98 1008.5
20260903073005 12 159 16.1 33.8 0.00 1.12 0.00 98 1008.5
20260903071005 12 134 16.1 38.6 0.00 1.12 0.00 98 1008.5
20260903070506 12 137 14.5 35.4 0.00 1.12 0.00 98 1008.5
20260903070006 12 154 14.5 37.0 0.00 1.12 0.00 98 1008.5
20260903065505 12 152 14.5 37.0 0.00 1.12 1.12 98 1008.5
20260903065005 12 140 11.3 33.8 0.00 1.12 1.12 98 1008.5
20260903064505 12 141 14.5 41.8 0.00 1.12 1.12 97 1008.5
20260903064005 12 169 16.1 41.8 0.00 1.12 1.12 97 1008.5
20260903063505 12 165 16.1 29.0 0.00 1.12 1.12 97 1008.5
20260903063005 12 199 11.3 24.1 0.00 1.12 1.12 96 1008.5
20260903062505 12 203 11.3 20.9 0.00 1.12 1.12 96 1008.5
20260903062005 12 194 9.7 24.1 0.00 1.12 1.12 96 1008.5
20260903061505 12 183 11.3 33.8 0.00 1.12 1.12 96 1008.5
20260903061005 13 163 14.5 33.8 0.00 1.12 1.12 96 1008.5
20260903060505 12 169 11.3 29.0 0.00 1.12 1.12 96 1008.5
20260903060005 12 197 9.7 49.9 0.00 1.12 1.12 97 1008.5
20260903055504 12 178 16.1 49.9 0.00 1.12 1.12 97 1008.5
20260903055005 12 166 12.9 25.7 0.00 1.12 1.12 97 1008.5
20260903054505 12 190 11.3 20.9 0.00 1.12 1.12 97 1008.5
20260903053504 12 217 8.0 19.3 0.00 1.12 1.12 97 1008.5
20260903052505 12 199 3.2 16.1 0.00 1.12 1.12 97 1008.5
20260903051504 12 205 3.2 12.9 0.00 1.12 1.12 97 1008.5
20260903051004 12 208 4.8 12.9 0.00 1.12 1.12 97 1008.5
20260903045004 13 192 4.8 11.3 0.00 1.12 1.12 97 1008.5
20260903044505 13 192 3.2 14.5 0.00 1.12 1.12 97 1008.5
20260903044005 13 194 3.2 14.5 0.00 1.12 1.12 97 1008.5
20260903043505 13 185 8.0 20.9 0.00 1.12 1.12 97 1008.5
20260903043005 13 192 8.0 25.7 0.00 1.12 1.12 97 1008.5
20260903042505 13 127 4.8 25.7 0.00 1.12 1.12 97 1007.5
20260903042004 13 202 11.3 24.1 0.00 1.12 1.12 97 1007.5
20260903041504 13 159 9.7 24.1 0.00 1.12 1.12 97 1007.5
20260903041005 13 150 14.5 24.1 0.00 1.12 1.12 97 1008.5
20260903040008 13 143 14.5 29.0 0.00 1.12 1.12 98 1008.5
20260903035504 13 172 14.5 27.4 0.00 1.12 1.12 98 1008.5
20260903035005 13 149 12.9 27.4 0.00 1.12 1.12 98 1008.5
20260903034505 13 167 9.7 27.4 0.00 1.12 1.12 98 1008.5
20260903033504 13 153 12.9 32.2 0.00 1.12 1.12 98 1008.5
20260903033005 13 154 16.1 32.2 0.00 1.12 1.12 98 1008.5
20260903032005 13 152 8.0 24.1 0.00 1.12 1.12 98 1008.5
20260903031505 13 156 11.3 25.7 0.00 1.12 1.12 98 1008.5
20260903031004 13 138 16.1 25.7 0.00 1.12 1.12 98 1008.5
20260903030505 13 168 14.5 24.1 0.00 1.12 1.12 98 1008.5
20260903030005 13 154 11.3 27.4 0.00 1.12 1.12 98 1008.5
20260903025505 13 141 11.3 27.4 0.00 1.12 1.12 98 1008.5
20260903025005 13 144 11.3 24.1 0.00 1.12 1.12 98 1008.5
20260903024504 13 146 14.5 27.4 0.00 1.12 1.12 98 1008.5
20260903024004 13 197 14.5 27.4 0.00 1.12 1.12 98 1008.5
20260903023505 13 161 17.7 32.2 0.00 1.12 1.12 98 1008.5
20260903023005 13 214 16.1 32.2 0.00 1.12 1.12 98 1008.5
20260903022505 13 181 19.3 32.2 0.00 1.12 1.12 98 1007.5
20260903022007 13 145 14.5 24.1 0.00 1.12 1.12 98 1007.5
20260903021505 13 215 3.2 3.2 0.00 1.12 1.12 98 1007.5
20260903021005 13 215 3.2 3.2 0.00 1.12 1.12 98 1007.5
20260903020504 13 215 3.2 3.2 0.00 1.12 1.12 98 1007.5
20260903020004 13 215 3.2 3.2 0.00 1.12 1.12 98 1007.5
20260903015504 13 215 3.2 3.2 0.00 1.12 1.12 98 1006.5
20260903014504 13 215 3.2 3.2 0.00 1.12 1.12 98 1006.5
20260903014004 13 215 3.2 3.2 0.00 1.12 1.12 98 1007.5
20260903013504 13 215 3.2 3.2 0.00 1.12 1.12 98 1007.5
20260903013004 13 215 3.2 3.2 0.00 1.12 1.12 98 1007.5
20260903012505 14 215 3.2 3.2 0.00 1.12 1.12 98 1006.5
20260903012004 14 215 3.2 3.2 0.00 1.12 1.12 98 1006.5
20260903011505 13 215 3.2 3.2 0.00 1.12 1.12 98 1006.5
20260903011004 13 215 3.2 3.2 0.00 1.12 1.12 98 1006.5
20260903010504 13 215 3.2 3.2 0.00 1.12 1.12 98 1006.5
20260903005504 13 215 3.2 3.2 0.00 1.12 1.12 98 1006.5
20260903005005 13 215 3.2 3.2 0.15 1.12 1.12 97 1006.5
20260903004004 13 215 3.2 3.2 0.25 1.12 1.12 97 1006.5
20260903003504 13 215 3.2 3.2 0.25 1.12 1.12 97 1006.5
20260903003004 13 215 3.2 3.2 0.25 1.12 1.12 98 1006.5
20260903002004 13 215 3.2 3.2 0.38 1.12 1.12 97 1006.5
20260903001004 13 215 3.2 3.2 0.38 1.12 1.12 97 1006.5
20260903000504 13 215 3.2 3.2 0.38 1.12 1.12 97 1006.5
20260903000004 13 215 3.2 3.2 0.38 1.12 1.12 97 1006.5
20260902235504 13 215 3.2 3.2 0.38 1.12 1.12 96 1006.5
20260902235004 13 215 3.2 3.2 0.23 0.97 0.97 96 1006.5
20260902234504 13 215 3.2 3.2 0.23 0.97 0.97 96 1006.5
20260902234004 13 215 3.2 3.2 0.13 0.86 0.86 96 1006.5
20260902233004 14 215 3.2 3.2 0.13 0.86 0.86 96 1006.5
20260902232503 14 215 3.2 3.2 0.00 0.74 0.74 96 1006.5
20260902232004 14 215 3.2 3.2 0.00 0.74 0.74 96 1006.5
20260902231004 14 215 3.2 3.2 0.00 0.74 0.74 95 1006.5
20260902230504 14 215 3.2 3.2 0.00 0.74 0.74 95 1006.5
20260902230005 14 215 3.2 3.2 0.00 0.74 0.74 95 1006.5
20260902225504 14 215 3.2 3.2 0.00 0.74 0.74 95 1006.5
20260902225004 14 215 3.2 3.2 0.00 0.74 0.74 94 1006.5
20260902224504 14 215 3.2 3.2 0.00 0.74 0.74 94 1006.5
20260902223504 14 215 3.2 3.2 0.00 0.74 0.74 94 1006.5
20260902223003 14 215 3.2 3.2 0.00 0.74 0.74 95 1006.5
20260902222504 14 215 3.2 3.2 0.00 0.74 0.74 95 1006.5
20260902222004 14 215 3.2 3.2 0.00 0.74 0.74 95 1006.5
20260902221504 14 215 3.2 3.2 0.00 0.74 0.74 94 1006.5
20260902221004 14 215 3.2 3.2 0.00 0.74 0.74 94 1006.5
20260902220504 14 215 3.2 3.2 0.00 0.74 0.74 94 1006.5
20260902220004 14 215 3.2 3.2 0.00 0.74 0.74 94 1006.5
20260902215504 14 215 3.2 3.2 0.00 0.74 0.74 94 1006.5
20260902215004 14 215 3.2 3.2 0.00 0.74 0.74 94 1006.5
20260902214003 14 215 3.2 3.2 0.00 0.74 0.74 94 1006.5
20260902213504 14 215 3.2 3.2 0.00 0.74 0.74 94 1006.5
20260902213003 14 215 3.2 3.2 0.00 0.74 0.74 94 1006.5
20260902212504 14 215 3.2 3.2 0.00 0.74 0.74 94 1006.5
20260902212004 14 215 3.2 3.2 0.13 0.74 0.74 94 1006.5
20260902211504 14 215 3.2 3.2 0.13 0.74 0.74 94 1006.5
20260902211004 14 215 3.2 3.2 0.13 0.74 0.74 94 1006.5
20260902210504 14 215 3.2 3.2 0.13 0.74 0.74 94 1006.5
20260902210004 13 215 3.2 3.2 0.25 0.74 0.74 94 1006.5
20260902205503 13 215 3.2 3.2 0.25 0.74 0.74 93 1006.5
20260902205004 13 215 3.2 3.2 0.25 0.74 0.74 93 1006.5
20260902204504 13 215 3.2 3.2 0.36 0.74 0.74 93 1006.5
20260902204004 13 215 3.2 3.2 0.36 0.74 0.74 93 1006.5
20260902203504 13 215 3.2 3.2 0.51 0.74 0.74 93 1006.5
20260902203004 13 215 3.2 3.2 0.51 0.74 0.74 93 1006.5
20260902202504 13 215 3.2 3.2 0.51 0.74 0.74 93 1005.5
20260902202004 13 215 3.2 3.2 0.38 0.61 0.61 93 1005.5
20260902201507 13 215 3.2 3.2 0.38 0.61 0.61 92 1005.5
20260902201007 13 215 3.2 3.2 0.48 0.61 0.61 92 1006.5
20260902200507 13 215 3.2 3.2 0.48 0.61 0.61 92 1006.5
20260902200006 13 215 3.2 3.2 0.38 0.48 0.48 92 1006.5
20260902195506 13 215 3.2 3.2 0.38 0.48 0.48 91 1006.5
20260902195006 13 215 3.2 3.2 0.38 0.48 0.48 91 1006.5
20260902194507 14 215 3.2 3.2 0.25 0.38 0.38 91 1006.5
20260902193506 14 215 3.2 3.2 0.13 0.23 0.23 90 1006.5
20260902193007 14 215 3.2 3.2 0.13 0.23 0.23 89 1006.5
20260902192507 14 215 3.2 3.2 0.13 0.23 0.23 89 1006.5
20260902192006 14 215 3.2 3.2 0.23 0.23 0.23 89 1006.5
20260902191507 14 215 3.2 3.2 0.23 0.23 0.23 89 1006.5
20260902191007 14 215 3.2 3.2 0.13 0.13 0.13 88 1006.5
20260902190507 14 215 3.2 3.2 0.13 0.13 0.13 88 1006.5
20260902190006 14 215 3.2 3.2 0.13 0.13 0.13 88 1006.5
20260902185507 14 215 3.2 3.2 0.13 0.13 0.13 88 1006.5
20260902185007 14 215 3.2 3.2 0.13 0.13 0.13 88 1006.5
20260902184506 14 215 3.2 3.2 0.13 0.13 0.13 87 1006.5
20260902183506 14 215 3.2 3.2 0.13 0.13 0.13 87 1005.5
20260902183006 14 215 3.2 3.2 0.13 0.13 0.13 86 1005.5
20260902182506 14 215 3.2 3.2 0.13 0.13 0.13 85 1006.5
20260902182007 15 215 3.2 3.2 0.00 0.00 0.00 83 1006.5
20260902181506 15 215 3.2 3.2 0.00 0.00 0.00 82 1006.5
20260902181006 15 215 3.2 3.2 0.00 0.00 0.00 81 1006.5
20260902180506 15 215 3.2 3.2 0.00 0.00 0.00 80 1006.5
20260902180008 15 215 3.2 3.2 0.00 0.00 0.00 79 1006.5
20260902175506 15 215 3.2 3.2 0.00 0.00 0.00 78 1006.5
20260902175007 15 215 3.2 3.2 0.00 0.00 0.00 77 1006.5
20260902174507 16 215 3.2 3.2 0.00 0.00 0.00 76 1006.5
20260902174007 16 215 3.2 3.2 0.00 0.00 0.00 75 1006.5
20260902173507 16 215 3.2 3.2 0.00 0.00 0.00 74 1006.5
20260902173006 16 215 3.2 3.2 0.00 0.00 0.00 73 1006.5
20260902172506 16 215 3.2 3.2 0.00 0.00 0.00 72 1007.5
20260902172007 17 215 3.2 3.2 0.00 0.00 0.00 71 1007.5
20260902171506 17 215 3.2 3.2 0.00 0.00 0.00 70 1007.5
20260902171007 17 215 3.2 3.2 0.00 0.00 0.00 69 1006.5
20260902165507 17 215 3.2 3.2 0.00 0.00 0.00 68 1006.5
20260902165007 17 215 3.2 3.2 0.00 0.00 0.00 68 1006.5
20260902164506 17 215 3.2 3.2 0.00 0.00 0.00 68 1006.5
20260902164007 17 215 3.2 3.2 0.00 0.00 0.00 68 1006.5
20260902163507 17 215 3.2 3.2 0.00 0.00 0.00 69 1006.5
20260902163007 17 215 3.2 3.2 0.00 0.00 0.00 69 1006.5
20260902162507 17 215 3.2 3.2 0.00 0.00 0.00 70 1006.5
20260902162006 17 215 3.2 3.2 0.00 0.00 0.00 70 1006.5
20260902161506 16 215 3.2 3.2 0.00 0.00 0.00 71 1006.5
20260902160506 16 215 3.2 3.2 0.00 0.00 0.00 72 1006.5
20260902155506 16 215 3.2 3.2 0.00 0.00 0.00 72 1006.5
20260902155006 16 215 3.2 3.2 0.00 0.00 0.00 73 1006.5
20260902154506 16 215 3.2 3.2 0.00 0.00 0.00 73 1006.5
20260902154006 16 215 3.2 3.2 0.00 0.00 0.00 73 1005.5
20260902153006 15 215 3.2 3.2 0.00 0.00 0.00 74 1005.5
20260902152506 15 215 3.2 3.2 0.00 0.00 0.00 74 1006.5
20260902152006 15 215 3.2 3.2 0.00 0.00 0.00 74 1006.5
20260902151506 15 215 3.2 3.2 0.00 0.00 0.00 74 1006.5
20260902151006 15 215 3.2 3.2 0.00 0.00 0.00 74 1006.5
20260902150506 15 215 3.2 3.2 0.00 0.00 0.00 74 1006.5
20260902150006 15 215 3.2 3.2 0.00 0.00 0.00 74 1006.5
20260902145507 15 215 3.2 3.2 0.00 0.00 0.00 74 1006.5
20260902145006 15 215 3.2 3.2 0.00 0.00 0.00 75 1006.5
20260902144506 15 215 3.2 3.2 0.00 0.00 0.00 75 1006.5
20260902144006 15 215 3.2 3.2 0.00 0.00 0.00 75 1007.5
20260902143506 15 215 3.2 3.2 0.00 0.00 0.00 75 1007.5
20260902143006 15 215 3.2 3.2 0.00 0.00 0.00 75 1007.5
20260902142506 15 215 3.2 3.2 0.00 0.00 0.00 75 1006.5
20260902141506 15 215 3.2 3.2 0.00 0.00 0.00 75 1006.5
20260902141006 15 215 3.2 3.2 0.00 0.00 0.00 75 1007.5
20260902140505 15 215 3.2 3.2 0.00 0.00 0.00 75 1007.5
20260902135506 15 215 3.2 3.2 0.00 0.00 0.00 74 1008.5
20260902135006 15 215 3.2 3.2 0.00 0.00 0.00 74 1008.5
20260902134506 15 215 3.2 3.2 0.00 0.00 0.00 74 1008.5
20260902134006 15 215 3.2 3.2 0.00 0.00 0.00 74 1008.5
20260902133506 15 215 3.2 3.2 0.00 0.00 0.00 74 1008.5
20260902133006 15 215 3.2 3.2 0.00 0.00 0.00 74 1008.5
20260902132507 15 215 3.2 3.2 0.00 0.00 0.00 74 1008.5
20260902132006 15 215 3.2 3.2 0.00 0.00 0.00 74 1008.5
20260902131506 15 215 3.2 3.2 0.00 0.00 0.00 74 1008.5
20260902131005 15 215 3.2 3.2 0.00 0.00 0.00 74 1008.5
20260902130506 15 215 3.2 3.2 0.00 0.00 0.00 74 1008.5
20260902130006 15 215 3.2 3.2 0.00 0.00 0.00 74 1008.5
20260902125506 15 215 3.2 3.2 0.00 0.00 0.00 74 1008.5
20260902125007 15 215 3.2 3.2 0.00 0.00 0.00 74 1008.5
20260902124006 15 215 3.2 3.2 0.00 0.00 0.00 74 1008.5
20260902123006 15 215 3.2 3.2 0.00 0.00 0.00 74 1008.5
20260902122506 15 215 3.2 3.2 0.00 0.00 0.00 74 1008.5
20260902122006 15 215 3.2 3.2 0.00 0.00 0.00 74 1008.5
20260902121506 15 215 3.2 3.2 0.00 0.00 0.00 75 1008.5
20260902121005 15 215 3.2 3.2 0.00 0.00 0.00 75 1008.5
20260902120505 15 215 3.2 3.2 0.00 0.00 0.00 75 1008.5